GFSNIL_prec_precacc12_333.txt.gz
Total_Precipitation_Accumulation
0.00 0.00 0.01 0.01 0.00 0.01 0.12 0.19 0.16 0.34 0.33 0.32 0.25 0.30 0.33 0.25 0.13 0.12 0.08 0.11 0.20 0.31
0.06 0.01 0.00 0.03 0.02 0.03 0.07 0.38 0.50 0.31 0.39 0.50 0.31 0.18 0.19 0.16 0.16 0.35 0.18 0.20 0.27 0.29
0.19 0.14 0.06 0.01 0.02 0.02 0.16 0.42 0.51 0.55 0.58 0.46 0.29 0.15 0.17 0.19 0.30 0.31 0.24 0.21 0.22 0.14
0.04 0.13 0.14 0.08 0.05 0.04 0.17 0.49 0.73 0.86 0.81 0.85 0.58 0.49 0.42 0.31 0.37 0.28 0.14 0.20 0.20 0.13
0.02 0.02 0.07 0.09 0.11 0.10 0.13 0.40 1.01 1.55 1.56 1.22 1.02 0.78 0.57 0.30 0.25 0.19 0.07 0.12 0.17 0.19
0.03 0.00 0.00 0.04 0.15 0.19 0.26 0.56 0.60 0.97 1.01 0.62 0.59 0.54 0.50 0.50 0.28 0.17 0.08 0.09 0.19 0.25
0.02 0.00 0.00 0.00 0.01 0.03 0.11 0.46 0.59 0.44 0.46 0.44 0.43 0.44 0.50 0.44 0.31 0.26 0.21 0.07 0.10 0.25
0.01 0.00 0.00 0.00 0.00 0.01 0.08 0.17 0.45 0.83 0.81 0.69 0.51 0.31 0.40 0.35 0.24 0.23 0.17 0.05 0.08 0.09
0.00 0.02 0.01 0.00 0.03 0.13 0.21 0.38 0.29 0.25 0.28 0.31 0.30 0.31 0.43 0.32 0.38 0.38 0.23 0.16 0.11 0.14
0.07 0.11 0.13 0.17 0.17 0.14 0.12 0.08 0.01 0.03 0.05 0.09 0.13 0.26 0.40 0.43 0.14 0.22 0.33 0.40 0.29 0.19
0.08 0.09 0.27 0.28 0.09 0.02 0.02 0.03 0.02 0.00 0.00 0.01 0.17 0.21 0.43 0.73 0.37 0.14 0.13 0.17 0.25 0.18
0.12 0.14 0.22 0.28 0.15 0.10 0.06 0.01 0.01 0.00 0.00 0.00 0.07 0.13 0.23 0.64 0.86 0.56 0.24 0.15 0.12 0.14
0.09 0.13 0.13 0.16 0.16 0.13 0.09 0.03 0.01 0.00 0.00 0.00 0.00 0.00 0.00 0.01 0.05 0.06 0.07 0.18 0.13 0.14
0.06 0.06 0.11 0.08 0.04 0.05 0.06 0.01 0.03 0.00 0.00 0.00 0.00 0.00 0.00 0.00 0.00 0.00 0.00 0.00 0.02 0.04

GFSNIL_prec_precacc12_336.txt.gz
Total_Precipitation_Accumulation
0.00 0.00 0.01 0.01 0.00 0.01 0.12 0.28 0.22 0.34 0.31 0.30 0.25 0.42 0.45 0.31 0.19 0.13 0.07 0.16 0.21 0.16
0.08 0.01 0.00 0.03 0.02 0.03 0.07 0.46 0.59 0.35 0.38 0.69 0.50 0.30 0.22 0.20 0.17 0.24 0.11 0.22 0.24 0.18
0.21 0.15 0.08 0.01 0.01 0.01 0.18 0.44 0.59 0.59 0.63 0.60 0.45 0.29 0.25 0.22 0.28 0.22 0.17 0.20 0.12 0.09
0.06 0.17 0.17 0.10 0.09 0.07 0.19 0.47 0.71 0.83 0.81 0.94 0.73 0.59 0.46 0.31 0.32 0.21 0.13 0.18 0.11 0.06
0.05 0.06 0.10 0.08 0.13 0.15 0.15 0.41 1.05 1.62 1.57 1.25 1.04 0.77 0.56 0.29 0.26 0.19 0.07 0.11 0.16 0.13
0.10 0.05 0.03 0.05 0.13 0.19 0.24 0.47 0.52 0.87 0.94 0.57 0.51 0.44 0.45 0.44 0.26 0.16 0.08 0.08 0.13 0.28
0.07 0.05 0.07 0.05 0.02 0.03 0.08 0.04 0.09 0.18 0.29 0.31 0.27 0.25 0.25 0.22 0.16 0.14 0.13 0.04 0.08 0.26
0.10 0.09 0.06 0.05 0.03 0.01 0.06 0.12 0.16 0.38 0.51 0.29 0.17 0.03 0.04 0.05 0.07 0.06 0.06 0.03 0.07 0.09
0.06 0.07 0.07 0.10 0.08 0.07 0.04 0.09 0.07 0.11 0.10 0.09 0.05 0.03 0.07 0.04 0.03 0.04 0.07 0.08 0.07 0.10
0.09 0.12 0.12 0.08 0.07 0.02 0.05 0.03 0.03 0.01 0.03 0.06 0.06 0.05 0.03 0.03 0.01 0.01 0.06 0.14 0.17 0.14
0.07 0.08 0.22 0.23 0.11 0.04 0.05 0.06 0.04 0.06 0.02 0.01 0.04 0.01 0.00 0.00 0.00 0.00 0.02 0.04 0.07 0.10
0.12 0.13 0.21 0.28 0.17 0.13 0.08 0.01 0.01 0.00 0.00 0.00 0.00 0.00 0.00 0.00 0.00 0.02 0.02 0.02 0.01 0.04
0.09 0.13 0.13 0.16 0.17 0.13 0.09 0.03 0.01 0.00 0.00 0.01 0.00 0.00 0.00 0.00 0.00 0.01 0.00 0.02 0.01 0.06
0.06 0.06 0.11 0.08 0.04 0.05 0.06 0.01 0.03 0.00 0.00 0.00 0.00 0.00 0.00 0.00 0.00 0.00 0.00 0.00 0.00 0.00

GFSNIL_prec_precacc12_339.txt.gz
Total_Precipitation_Accumulation
0.01 0.01 0.00 0.00 0.00 0.00 0.09 0.26 0.14 0.12 0.22 0.26 0.25 0.47 0.46 0.33 0.23 0.13 0.04 0.19 0.26 0.13
0.08 0.01 0.00 0.00 0.01 0.02 0.04 0.39 0.45 0.20 0.39 0.69 0.57 0.34 0.29 0.28 0.23 0.24 0.10 0.21 0.23 0.12
0.21 0.15 0.08 0.01 0.01 0.01 0.15 0.42 0.59 0.58 0.62 0.58 0.43 0.33 0.32 0.32 0.33 0.15 0.17 0.17 0.10 0.10
0.06 0.17 0.17 0.10 0.09 0.07 0.17 0.43 0.64 0.79 0.79 0.91 0.68 0.54 0.46 0.32 0.31 0.16 0.14 0.12 0.14 0.17
0.05 0.06 0.10 0.07 0.10 0.12 0.08 0.26 0.70 1.26 1.32 1.06 0.90 0.63 0.48 0.20 0.13 0.08 0.09 0.13 0.19 0.21
0.10 0.05 0.03 0.05 0.04 0.05 0.06 0.12 0.08 0.15 0.39 0.21 0.14 0.18 0.25 0.23 0.04 0.01 0.00 0.00 0.03 0.22
0.07 0.05 0.07 0.05 0.02 0.01 0.02 0.01 0.01 0.01 0.05 0.03 0.01 0.06 0.09 0.04 0.00 0.00 0.00 0.00 0.02 0.10
0.10 0.09 0.06 0.05 0.03 0.01 0.04 0.02 0.01 0.03 0.03 0.05 0.01 0.01 0.03 0.01 0.03 0.01 0.01 0.01 0.04 0.08
0.06 0.06 0.06 0.11 0.09 0.07 0.02 0.03 0.00 0.00 0.01 0.01 0.00 0.02 0.06 0.05 0.04 0.03 0.01 0.01 0.02 0.00
0.09 0.10 0.10 0.08 0.07 0.03 0.05 0.03 0.03 0.02 0.06 0.04 0.12 0.10 0.06 0.07 0.01 0.00 0.00 0.00 0.00 0.01
0.07 0.07 0.18 0.16 0.09 0.03 0.07 0.08 0.05 0.12 0.06 0.03 0.09 0.03 0.03 0.01 0.00 0.00 0.00 0.00 0.00 0.01
0.12 0.13 0.15 0.22 0.16 0.13 0.08 0.03 0.02 0.02 0.01 0.00 0.01 0.01 0.00 0.00 0.00 0.00 0.00 0.00 0.00 0.00
0.09 0.13 0.13 0.16 0.16 0.12 0.08 0.03 0.01 0.00 0.00 0.01 0.00 0.06 0.05 0.02 0.00 0.00 0.00 0.00 0.00 0.00
0.03 0.06 0.10 0.08 0.04 0.04 0.05 0.01 0.03 0.00 0.00 0.00 0.00 0.00 0.01 0.02 0.00 0.00 0.00 0.00 0.00 0.00

GFSNIL_prec_precacc12_342.txt.gz
Total_Precipitation_Accumulation
0.01 0.01 0.00 0.00 0.00 0.00 0.08 0.25 0.14 0.11 0.22 0.25 0.23 0.45 0.42 0.32 0.23 0.13 0.07 0.23 0.27 0.13
0.06 0.01 0.00 0.00 0.00 0.01 0.02 0.37 0.38 0.16 0.34 0.63 0.55 0.34 0.29 0.28 0.21 0.20 0.10 0.16 0.18 0.12
0.16 0.12 0.07 0.01 0.00 0.00 0.12 0.36 0.39 0.20 0.27 0.37 0.35 0.31 0.31 0.32 0.26 0.10 0.10 0.10 0.12 0.09
0.06 0.17 0.17 0.10 0.08 0.07 0.15 0.21 0.04 0.05 0.14 0.30 0.37 0.30 0.31 0.25 0.17 0.04 0.03 0.08 0.12 0.28
0.05 0.06 0.10 0.07 0.08 0.07 0.04 0.07 0.09 0.30 0.12 0.12 0.12 0.17 0.24 0.06 0.03 0.03 0.07 0.10 0.18 0.24
0.10 0.05 0.03 0.05 0.04 0.03 0.03 0.06 0.02 0.06 0.07 0.04 0.02 0.01 0.01 0.01 0.00 0.00 0.00 0.00 0.03 0.22
0.07 0.05 0.07 0.05 0.02 0.01 0.01 0.01 0.00 0.01 0.03 0.03 0.01 0.02 0.03 0.01 0.00 0.00 0.00 0.00 0.02 0.10
0.10 0.09 0.06 0.05 0.03 0.01 0.01 0.00 0.00 0.03 0.03 0.01 0.01 0.04 0.06 0.02 0.03 0.02 0.01 0.01 0.04 0.08
0.06 0.05 0.06 0.11 0.08 0.05 0.02 0.03 0.00 0.00 0.02 0.02 0.05 0.08 0.09 0.05 0.04 0.03 0.01 0.01 0.02 0.00
0.07 0.08 0.07 0.07 0.07 0.03 0.05 0.03 0.03 0.02 0.06 0.04 0.13 0.19 0.15 0.10 0.02 0.01 0.00 0.00 0.00 0.00
0.07 0.07 0.11 0.07 0.06 0.03 0.05 0.07 0.05 0.12 0.06 0.03 0.11 0.09 0.09 0.03 0.00 0.00 0.00 0.00 0.00 0.00
0.07 0.08 0.11 0.09 0.05 0.07 0.04 0.02 0.02 0.02 0.01 0.00 0.01 0.01 0.00 0.00 0.00 0.00 0.00 0.00 0.00 0.00
0.04 0.02 0.03 0.02 0.07 0.10 0.06 0.03 0.01 0.00 0.00 0.01 0.00 0.06 0.05 0.02 0.00 0.00 0.00 0.00 0.00 0.01
0.00 0.01 0.01 0.00 0.01 0.03 0.03 0.01 0.01 0.00 0.00 0.00 0.00 0.00 0.01 0.02 0.00 0.00 0.00 0.00 0.00 0.00

GFSNIL_prec_precacc12_345.txt.gz
Total_Precipitation_Accumulation
0.01 0.01 0.00 0.00 0.00 0.00 0.00 0.09 0.07 0.02 0.02 0.02 0.04 0.20 0.17 0.12 0.16 0.11 0.09 0.20 0.19 0.08
0.01 0.00 0.00 0.00 0.00 0.00 0.00 0.08 0.09 0.04 0.08 0.25 0.28 0.18 0.13 0.13 0.08 0.01 0.01 0.03 0.06 0.09
0.02 0.00 0.01 0.00 0.00 0.00 0.03 0.02 0.08 0.05 0.07 0.17 0.21 0.21 0.17 0.14 0.06 0.00 0.00 0.03 0.06 0.09
0.02 0.04 0.04 0.01 0.03 0.04 0.02 0.00 0.00 0.01 0.04 0.12 0.16 0.11 0.09 0.04 0.03 0.01 0.01 0.04 0.12 0.27
0.03 0.03 0.03 0.01 0.03 0.05 0.03 0.03 0.07 0.13 0.07 0.11 0.10 0.07 0.04 0.02 0.02 0.03 0.07 0.10 0.18 0.21
0.07 0.05 0.03 0.03 0.02 0.03 0.02 0.01 0.00 0.02 0.06 0.10 0.10 0.09 0.07 0.04 0.02 0.00 0.00 0.00 0.02 0.11
0.05 0.05 0.07 0.05 0.02 0.01 0.01 0.00 0.00 0.06 0.14 0.17 0.16 0.14 0.16 0.15 0.10 0.06 0.01 0.00 0.00 0.02
0.09 0.09 0.06 0.05 0.03 0.01 0.01 0.00 0.03 0.16 0.18 0.21 0.22 0.22 0.22 0.16 0.09 0.06 0.03 0.03 0.03 0.02
0.06 0.05 0.07 0.12 0.10 0.06 0.04 0.06 0.09 0.11 0.15 0.14 0.23 0.29 0.24 0.11 0.05 0.02 0.01 0.01 0.01 0.00
0.02 0.02 0.02 0.02 0.04 0.02 0.04 0.03 0.04 0.03 0.09 0.08 0.22 0.36 0.20 0.13 0.01 0.01 0.00 0.01 0.01 0.00
0.00 0.00 0.00 0.00 0.03 0.02 0.05 0.05 0.03 0.12 0.06 0.04 0.14 0.14 0.11 0.03 0.00 0.00 0.00 0.00 0.00 0.00
0.00 0.00 0.00 0.00 0.02 0.03 0.02 0.01 0.01 0.02 0.01 0.00 0.01 0.01 0.00 0.00 0.00 0.00 0.00 0.00 0.00 0.00
0.00 0.00 0.00 0.00 0.01 0.00 0.00 0.00 0.00 0.00 0.00 0.01 0.00 0.06 0.05 0.02 0.00 0.00 0.00 0.00 0.00 0.03
0.00 0.00 0.00 0.00 0.00 0.00 0.00 0.00 0.00 0.00 0.00 0.00 0.00 0.00 0.01 0.02 0.00 0.00 0.00 0.00 0.00 0.00

GFSNIL_prec_precacc12_348.txt.gz
Total_Precipitation_Accumulation
0.00 0.00 0.00 0.00 0.00 0.00 0.00 0.00 0.00 0.01 0.02 0.02 0.03 0.06 0.06 0.07 0.11 0.09 0.09 0.15 0.13 0.06
0.00 0.00 0.00 0.00 0.00 0.00 0.00 0.00 0.00 0.00 0.05 0.04 0.09 0.06 0.08 0.08 0.06 0.02 0.01 0.00 0.03 0.09
0.00 0.00 0.00 0.00 0.00 0.00 0.00 0.00 0.00 0.00 0.01 0.01 0.04 0.06 0.08 0.11 0.05 0.00 0.00 0.01 0.06 0.09
0.00 0.00 0.00 0.00 0.00 0.00 0.00 0.00 0.00 0.00 0.00 0.02 0.04 0.06 0.09 0.04 0.02 0.01 0.01 0.04 0.12 0.27
0.00 0.00 0.00 0.00 0.00 0.00 0.00 0.00 0.00 0.02 0.02 0.06 0.15 0.16 0.16 0.13 0.13 0.11 0.10 0.09 0.12 0.18
0.00 0.00 0.00 0.01 0.00 0.01 0.00 0.00 0.00 0.01 0.04 0.13 0.25 0.28 0.30 0.35 0.44 0.29 0.16 0.03 0.02 0.01
0.00 0.00 0.00 0.00 0.01 0.00 0.00 0.00 0.00 0.05 0.13 0.26 0.35 0.34 0.40 0.54 0.38 0.32 0.19 0.11 0.06 0.03
0.00 0.00 0.00 0.00 0.00 0.00 0.00 0.00 0.04 0.16 0.22 0.32 0.33 0.36 0.39 0.33 0.24 0.21 0.14 0.13 0.13 0.09
0.00 0.00 0.00 0.02 0.02 0.02 0.04 0.06 0.10 0.14 0.17 0.16 0.25 0.33 0.24 0.14 0.10 0.06 0.06 0.05 0.05 0.04
0.01 0.03 0.02 0.02 0.02 0.01 0.00 0.01 0.01 0.03 0.09 0.07 0.18 0.32 0.17 0.12 0.01 0.01 0.00 0.02 0.02 0.01
0.01 0.01 0.00 0.00 0.00 0.00 0.01 0.02 0.00 0.06 0.04 0.03 0.10 0.13 0.11 0.03 0.00 0.00 0.00 0.00 0.01 0.00
0.00 0.00 0.00 0.00 0.00 0.00 0.00 0.01 0.01 0.02 0.01 0.00 0.01 0.01 0.00 0.00 0.00 0.00 0.00 0.01 0.02 0.03
0.00 0.00 0.00 0.00 0.00 0.00 0.00 0.00 0.00 0.00 0.00 0.00 0.00 0.06 0.05 0.02 0.00 0.00 0.00 0.00 0.00 0.03
0.00 0.00 0.00 0.00 0.00 0.00 0.00 0.00 0.00 0.00 0.00 0.00 0.00 0.00 0.01 0.01 0.00 0.00 0.00 0.00 0.00 0.00